CAPE
1579 1585 1683 1741 1684 1578 1174 1327 1873 1946 2419 2525 2697 2667 2672 3150 3104 3171 1715 245 6 17 0 0 0 0 0 0 0 0 0 0 0 11 4 26 30 52 57 106 42 91 7
1708 2711 2030 1805 1828 1793 1592 1117 1167 1628 2054 2372 2527 2570 2382 2689 3228 3267 2015 402 18 63 0 0 0 0 0 0 0 0 0 0 0 0 0 32 38 57 73 123 64 48 48
1877 1794 2190 2298 2481 2758 2159 1857 1441 1407 1700 1800 2230 2407 2098 2415 3291 3355 2080 323 4 10 0 0 0 0 0 0 0 0 0 0 0 2 17 33 37 51 80 129 126 64 48
1628 1787 2179 2112 2475 2251 2331 2210 1978 1651 1390 1544 1948 2143 2026 2950 3494 3260 1709 203 0 0 0 0 0 0 0 0 0 0 0 0 3 8 22 27 33 36 35 100 33 2 10
1666 1718 1891 1982 2030 2149 2235 2181 2139 2053 1428 1216 1356 1692 2438 3103 3427 3180 1407 101 0 0 0 0 0 0 0 0 0 1 2 2 7 5 13 24 16 16 16 50 78 2 9
1661 1781 1865 2076 2068 2248 2321 2302 2402 2377 1987 1293 1248 1384 2729 2770 2026 1701 815 108 0 0 0 0 0 0 0 0 0 0 0 10 23 19 25 16 12 7 15 43 109 8 15
1782 1691 1926 2131 2274 2465 2495 2545 2575 2700 2422 1904 1487 1799 2749 3024 831 235 45 172 0 0 0 0 0 0 0 0 0 0 0 0 0 28 37 14 11 12 8 18 49 6 10
2202 2192 2257 2395 2395 2465 2739 3058 2989 2977 2983 2728 2328 2353 3021 2959 3 0 0 99 0 0 0 0 0 0 0 0 0 1 0 0 4 8 16 14 11 6 4 24 21 6 15
2006 2231 2318 2454 2573 2585 2745 3100 3311 3241 3331 3315 3184 3286 3468 1575 0 0 0 42 0 0 0 0 0 0 0 0 0 0 1 2 0 0 0 0 0 2 1 17 17 9 18
2118 2113 2360 2587 2797 2866 3004 3423 3405 3495 3449 3152 3383 3568 3200 3352 0 0 8 116 0 0 0 0 0 0 0 0 0 0 2 1 17 9 2 2 19 1 9 22 14 16 4
1519 1934 2211 2413 3059 3290 3354 3577 3764 3833 4085 3632 3338 3641 3642 3680 0 0 0 45 0 0 0 0 0 0 0 0 0 0 0 0 0 27 24 19 16 15 16 19 13 11 19
1494 1559 1900 2152 2734 2772 3428 3660 3830 3943 3732 3874 3675 3725 3698 3189 45 0 0 0 0 0 0 0 0 0 0 0 0 0 0 0 12 16 16 16 11 14 12 23 36 48 41
1148 1878 1541 1526 590 1258 2982 3104 3389 4065 3488 3379 3259 3222 2819 2338 451 0 0 0 0 0 0 0 0 0 0 0 0 0 0 0 3 10 19 29 21 14 21 27 43 34 45
575 605 550 735 1107 1089 582 395 509 1620 3217 2690 2799 3303 2765 2442 1748 0 0 0 0 0 0 0 0 0 0 0 0 0 0 0 3 4 9 26 21 15 13 23 25 20 22
453 470 571 274 485 287 242 204 122 1 1 3 705 3175 2552 2043 2083 66 0 0 0 0 0 0 0 0 0 0 0 0 0 0 3 6 10 14 16 10 5 16 14 22 17
504 353 231 411 413 259 106 8 1 0 0 0 1 189 2671 1290 285 0 0 0 0 0 0 0 0 0 0 0 0 0 0 0 0 6 5 6 13 8 3 5 15 25 19
155 240 528 253 16 21 6 0 0 0 1 0 0 0 2 21 0 0 0 0 0 0 0 0 0 0 0 0 0 0 0 0 0 3 5 3 7 2 3 2 7 14 20
175 0 139 352 731 292 14 2 305 37 75 123 3 3 2 0 0 1 0 0 0 0 0 0 0 0 0 0 0 0 0 0 0 0 4 1 0 6 2 2 5 3 9
53 8 30 263 239 291 720 546 347 429 21 0 1 4 11 2 1 0 0 0 4 7 5 1 0 0 0 0 0 0 0 0 0 0 0 1 0 5 4 2 1 2 2
39 0 1 20 45 28 78 223 64 10 13 14 7 10 4 2 6 11 8 15 12 4 13 11 2 0 0 0 0 0 0 0 0 0 0 0 0 0 2 1 0 0 5
9 12 0 6 4 7 5 6 4 3 4 6 17 6 0 1 3 0 2 3 6 16 20 12 1 0 0 0 0 0 0 0 0 0 0 0 0 0 0 0 0 0 5
7 8 10 8 7 5 5 5 4 3 4 4 4 3 1 0 85 39 5 7 22 15 9 0 0 1 0 0 0 0 0 0 0 0 0 0 0 0 0 0 0 1 2
3 3 5 5 7 2 4 4 5 6 6 6 5 5 5 5 6 8 11 15 14 16 9 4 3 2 11 0 0 0 0 0 0 0 0 0 0 0 0 0 0 1 0
4 3 0 0 0 2 5 5 5 1 4 5 5 4 3 4 6 5 5 5 5 4 11 14 16 2 4 0 0 0 0 0 0 0 0 0 0 0 0 0 0 0 1
1 6 4 1 0 0 0 3 1 4 5 6 6 5 3 3 3 4 4 4 3 2 3 3 3 2 1 1 0 0 0 2 0 0 0 0 0 0 0 0 0 0 0
0 2 9 7 1 0 1 1 0 0 0 1 2 3 4 4 4 3 3 2 3 2 2 3 4 2 2 3 2 1 0 0 0 0 0 0 0 0 0 0 0 0 0
CIN
-50 -50 -53 -59 -58 -71 -83 -67 -36 -19 -8 -7 -0 -0 -0 -0 -0 -0 -26 -361 -373 -561 -0 -0 -0 -0 -0 -0 -0 -0 -0 -0 -0 -0 -0 -0 -0 -0 -0 -0 -2 -0 -32
-66 -43 -57 -67 -68 -66 -79 -93 -81 -48 -26 -15 -4 -2 -3 -0 -0 -0 -13 -299 -644 -468 -0 -0 -0 -0 -0 -0 -0 -0 -0 -0 -0 -0 -0 -0 -0 -0 -0 -0 -0 -1 -4
-76 -94 -77 -70 -60 -48 -69 -73 -90 -82 -53 -39 -23 -15 -33 -1 -0 -0 -15 -337 -351 -174 -0 -0 -0 -0 -0 -0 -0 -0 -0 -0 -0 -0 -0 -0 -0 -0 -0 -1 -0 -1 -0
-83 -98 -92 -91 -79 -76 -67 -60 -70 -84 -89 -61 -46 -40 -33 -0 -0 -0 -38 -405 -0 -0 -0 -0 -0 -0 -0 -0 -0 -0 -0 -0 -0 -0 -0 -0 -0 -0 -0 -0 -1 -0 -16
-119 -118 -123 -104 -82 -67 -58 -50 -53 -57 -86 -98 -93 -74 -10 -0 -0 -0 -99 -438 -0 -0 -0 -0 -0 -0 -0 -0 -0 -0 -0 -0 -0 -0 -0 -0 -0 -0 -0 -0 -0 -0 -0
-137 -137 -118 -94 -77 -67 -59 -51 -40 -44 -63 -90 -93 -80 -3 -0 -133 -110 -227 -415 -0 -0 -0 -0 -0 -0 -0 -0 -0 -0 -0 -0 -0 -0 -0 -0 -0 -0 -0 -1 -0 -0 -0
-173 -174 -130 -92 -85 -62 -49 -44 -35 -26 -40 -65 -71 -46 -4 -0 -343 -502 -624 -408 -0 -0 -0 -0 -0 -0 -0 -0 -0 -0 -0 -0 -0 -0 -0 -0 -0 -0 -0 -6 -0 -0 -0
-103 -111 -99 -110 -95 -64 -31 -21 -29 -13 -13 -26 -36 -23 -1 -9 -208 -0 -0 -500 -0 -0 -0 -0 -0 -0 -0 -0 -0 -0 -0 -0 -0 -0 -0 -0 -0 -0 -0 -0 -2 -0 -0
-117 -84 -54 -50 -64 -53 -30 -24 -25 -10 -3 -10 -2 -0 -0 -113 -0 -0 -0 -568 -0 -0 -0 -0 -0 -0 -0 -0 -0 -0 -0 -0 -0 -0 -0 -0 -0 -2 -0 -5 -0 -0 -0
-59 -44 -31 -22 -14 -26 -21 -17 -19 -4 -3 -4 -0 -0 -0 -6 -0 -0 -532 -395 -0 -0 -0 -0 -0 -0 -0 -0 -0 -0 -0 -0 -0 -13 -31 -0 -2 -0 -2 -0 -0 -0 -0
-128 -73 -38 -15 -0 -0 -3 -3 -5 -6 -0 -2 -0 -0 -0 -0 -0 -0 -0 -430 -0 -0 -0 -0 -0 -0 -0 -0 -0 -0 -0 -0 -0 -0 -0 -0 -0 -0 -0 -0 -0 -1 -0
-108 -71 -48 -25 -1 -0 -0 -0 -0 -0 -4 -0 -2 -0 -0 -1 -324 -0 -0 -0 -0 -0 -0 -0 -0 -0 -0 -0 -0 -0 -0 -0 -0 -0 -0 -0 -0 -0 -0 -0 -0 -0 -0
-80 -7 -34 -106 -246 -110 -6 -5 -5 -0 -0 -0 -0 -0 -1 -2 -111 -0 -0 -0 -0 -0 -0 -0 -0 -0 -0 -0 -0 -0 -0 -0 -0 -0 -0 -0 -0 -0 -0 -0 -0 -0 -0
-144 -133 -161 -168 -113 -102 -195 -266 -245 -111 -9 -1 -0 -0 -1 -4 -24 -0 -0 -0 -0 -0 -0 -0 -0 -0 -0 -0 -0 -0 -0 -0 -0 -0 -0 -0 -0 -0 -0 -0 -0 -0 -0
-155 -148 -146 -241 -227 -260 -347 -431 -487 -0 -0 -0 -132 -1 -0 -39 -23 -132 -0 -0 -0 -0 -0 -0 -0 -0 -0 -0 -0 -0 -0 -0 -0 -0 -0 -0 -0 -0 -0 -0 -0 -0 -0
-64 -128 -221 -178 -240 -305 -375 -435 -0 -0 -0 -0 -0 -16 -0 -85 -334 -0 -0 -0 -0 -0 -0 -0 -0 -0 -0 -0 -0 -0 -0 -0 -0 -0 -0 -0 -0 -0 -0 -0 -0 -0 -0
-183 -142 -86 -167 -446 -388 -463 -0 -0 -0 -0 -0 -0 -0 -0 -9 -0 -0 -0 -0 -0 -0 -0 -0 -0 -0 -0 -0 -0 -0 -0 -0 -0 -0 -0 -0 -0 -0 -0 -0 -0 -0 -0
-168 -0 -254 -163 -46 -125 -215 -66 -72 -218 -222 -43 -0 -0 -0 -0 -0 -0 -0 -0 -0 -0 -0 -0 -0 -0 -0 -0 -0 -0 -0 -0 -0 -0 -0 -0 -0 -0 -0 -0 -0 -0 -0
-349 -332 -483 -223 -191 -128 -18 -27 -76 -79 -227 -0 -0 -0 -0 -0 -0 -0 -0 -0 -0 -0 -0 -0 -0 -0 -0 -0 -0 -0 -0 -0 -0 -0 -0 -0 -0 -0 -0 -0 -0 -1 -0
-383 -0 -0 -510 -410 -510 -318 -122 -153 -299 -217 -203 -0 -0 -0 -0 -0 -0 -0 -0 -0 -0 -0 -0 -0 -0 -0 -0 -0 -0 -0 -0 -0 -0 -0 -0 -0 -0 -0 -0 -0 -0 -0
-0 -0 -1 -0 -0 -0 -0 -0 -0 -0 -0 -0 -0 -0 -0 -0 -1 -3 -0 -0 -0 -0 -0 -0 -0 -0 -0 -0 -0 -0 -0 -0 -0 -0 -0 -0 -0 -0 -0 -0 -0 -0 -0
-0 -0 -0 -0 -0 -0 -0 -0 -0 -0 -0 -0 -0 -0 -0 -0 -60 -124 -0 -0 -0 -0 -0 -0 -0 -0 -0 -0 -0 -0 -0 -0 -0 -0 -0 -0 -0 -0 -0 -0 -0 -0 -0
-0 -0 -0 -0 -0 -0 -0 -0 -0 -0 -0 -0 -0 -0 -0 -0 -0 -0 -0 -0 -0 -0 -0 -0 -0 -0 -7 -0 -0 -0 -0 -0 -0 -0 -0 -0 -0 -0 -0 -0 -0 -0 -0
-0 -0 -0 -0 -0 -0 -0 -0 -0 -0 -0 -0 -0 -0 -0 -0 -0 -0 -0 -0 -0 -0 -0 -0 -0 -0 -0 -0 -0 -0 -0 -0 -0 -0 -0 -0 -0 -0 -0 -0 -0 -0 -0
-0 -0 -0 -0 -0 -0 -0 -0 -0 -0 -0 -0 -0 -0 -0 -0 -0 -0 -0 -0 -0 -0 -0 -0 -0 -0 -0 -0 -0 -0 -0 -0 -0 -0 -0 -0 -0 -0 -0 -0 -0 -0 -0
-0 -0 -0 -0 -0 -0 -0 -0 -0 -0 -0 -0 -0 -0 -0 -0 -0 -0 -0 -0 -0 -0 -0 -0 -0 -0 -0 -0 -0 -0 -0 -0 -0 -0 -0 -0 -0 -0 -0 -0 -0 -0 -0
Wind_Speed
17 16 15 14 13 12 11 11 11 10 8 7 6 5 5 3 1 1 2 5 2 3 2 4 5 4 5 4 4 4 5 6 6 4 2 5 1 1 2 5 5 6 9
16 14 15 14 14 14 13 13 12 11 10 9 8 7 6 6 2 4 5 5 4 4 3 3 4 4 3 3 3 5 6 5 7 3 5 2 4 2 0 2 4 5 8
16 17 16 15 14 14 14 13 12 12 12 11 9 8 8 7 4 5 6 6 5 5 4 3 4 4 5 6 7 6 5 5 4 5 4 4 2 3 1 3 3 6 6
15 16 16 18 17 16 14 13 13 13 12 12 11 9 8 8 6 8 7 8 5 5 5 4 5 4 6 5 5 5 5 4 4 5 5 5 6 6 4 5 5 5 4
14 15 17 15 15 15 15 14 13 13 12 12 12 10 9 8 7 9 9 9 8 7 6 6 6 10 12 12 4 7 7 8 7 6 6 7 7 5 4 3 5 5 3
12 14 13 14 15 15 15 14 12 12 12 11 12 11 11 9 18 13 11 10 10 7 8 8 10 12 12 13 13 15 12 9 9 9 8 7 6 6 4 3 6 4 2
12 14 13 14 15 15 14 14 13 12 11 12 12 12 11 9 14 15 11 11 11 7 10 10 9 9 9 9 8 8 8 6 5 9 9 7 5 6 4 5 6 5 3
12 12 12 13 14 14 14 14 12 11 11 11 12 12 11 7 16 15 12 12 11 7 9 11 7 10 8 6 4 4 6 10 10 9 10 9 8 6 3 2 7 7 5
10 10 10 11 12 13 15 14 12 11 11 12 11 12 12 10 16 17 14 12 11 9 8 9 10 9 9 2 4 3 3 6 7 7 7 8 8 9 11 5 4 5 3
7 8 8 8 10 12 13 12 11 11 11 10 11 11 12 11 14 18 13 9 12 9 6 9 5 8 10 6 5 3 3 3 1 7 7 8 6 7 8 10 5 5 5
5 3 1 4 8 9 8 8 9 10 10 12 12 11 11 12 15 18 15 10 11 11 6 9 9 12 11 8 7 3 4 3 3 3 5 5 7 9 9 10 9 5 8
6 5 4 5 5 4 6 7 8 9 11 11 11 9 8 9 13 15 12 5 12 11 9 8 9 14 11 9 7 7 4 6 2 3 4 6 7 7 8 9 9 10 10
5 9 9 13 10 9 2 4 4 7 9 10 10 9 8 8 10 15 8 8 9 8 7 9 16 15 11 7 4 5 7 7 2 3 5 7 7 7 9 8 9 12 13
3 3 4 6 7 8 5 8 8 8 7 10 10 9 11 10 11 11 10 8 8 6 8 10 11 11 10 4 9 6 8 2 1 4 6 6 7 6 8 9 5 10 10
6 5 8 5 6 5 4 5 4 2 4 6 15 9 10 12 12 15 18 14 11 9 11 9 10 11 10 9 9 8 5 5 4 4 5 5 8 7 8 9 5 7 10
3 4 3 4 2 4 2 3 8 6 7 7 19 15 11 7 19 22 17 16 17 20 10 8 8 10 11 10 9 8 7 5 4 4 6 6 6 6 8 8 8 7 9
5 5 4 2 5 3 1 3 4 6 11 13 14 15 9 9 8 15 15 10 16 15 9 8 9 10 10 9 9 9 8 7 5 5 5 6 6 8 6 7 8 8 8
5 2 3 3 4 2 4 6 3 4 4 3 7 11 5 22 23 16 20 16 9 7 5 7 7 7 10 9 9 9 9 8 7 6 6 7 8 8 8 8 8 8 8
8 7 5 5 4 4 3 7 4 4 6 9 7 5 5 5 22 30 22 6 12 11 9 10 9 5 8 10 9 9 8 9 8 7 6 6 7 7 7 8 7 4 8
7 9 8 6 6 7 7 5 5 6 5 6 6 3 3 4 5 5 4 3 8 10 9 7 7 7 7 9 10 9 9 9 8 8 8 7 7 7 7 8 9 9 8
6 6 7 7 7 7 6 6 5 5 5 5 5 5 2 2 4 9 10 7 7 7 8 8 8 7 5 6 9 10 10 10 10 9 8 8 8 7 7 7 8 8 7
6 7 7 7 7 7 6 6 5 5 5 4 3 2 8 6 5 4 5 6 6 7 7 7 7 6 7 8 9 11 11 12 11 10 9 9 8 8 7 7 8 8 7
9 8 8 8 8 7 9 8 7 8 7 7 7 7 8 7 7 4 0 3 5 7 8 8 8 5 5 6 9 9 11 11 11 11 10 10 9 8 8 8 8 8 9
10 9 9 8 8 8 8 8 7 10 8 8 8 7 6 7 7 8 8 7 7 5 4 4 9 11 4 5 5 6 8 6 10 11 12 10 10 9 9 9 9 9 9
11 9 9 8 9 8 8 9 9 9 9 8 7 7 7 8 9 9 9 9 9 9 11 9 6 11 13 9 6 9 11 12 7 7 11 11 11 13 10 9 10 10 10
11 11 9 8 8 9 8 8 9 9 10 9 8 8 8 9 9 9 9 10 8 10 11 9 11 15 14 12 10 10 6 6 7 8 5 8 10 10 10 10 13 9 12
Wind_Direction
203 200 202 205 211 216 222 226 227 228 224 227 234 253 278 289 281 161 133 144 166 124 94 62 60 24 12 18 5 358 2 344 317 67 15 88 326 25 123 104 110 112 98
202 204 204 204 205 209 217 222 228 231 226 224 229 239 260 273 198 192 186 157 173 153 124 105 73 62 24 356 38 12 25 29 334 345 42 84 94 310 325 95 88 48 102
200 201 201 204 205 211 213 218 221 226 234 229 222 237 248 246 214 183 189 159 190 144 143 125 92 73 52 39 21 11 26 25 2 16 27 44 52 31 235 99 77 87 89
204 207 207 204 205 208 211 214 216 221 228 233 229 235 238 231 194 175 173 163 176 147 139 115 103 96 81 64 50 44 25 348 32 22 29 39 25 49 10 85 89 64 59
206 213 215 216 212 211 209 214 218 220 220 230 232 227 228 224 181 181 174 164 166 150 139 134 111 71 53 30 46 39 10 6 12 38 40 43 29 11 19 30 93 115 104
213 218 218 217 216 215 212 209 214 218 216 221 227 222 221 231 135 152 168 161 165 151 152 124 121 119 88 71 68 55 34 15 37 14 39 38 24 3 18 347 74 145 108
213 217 215 213 214 213 214 208 208 213 209 215 222 218 221 217 149 151 166 159 163 162 160 152 167 120 142 123 111 113 82 58 12 30 36 30 21 6 323 320 71 80 68
217 218 215 208 211 211 213 211 205 208 206 210 217 217 218 203 151 153 170 156 157 176 169 162 149 159 149 160 140 93 65 52 24 47 47 44 38 358 311 319 106 109 111
224 222 225 217 211 209 212 208 204 208 205 213 217 213 213 145 147 155 177 162 158 167 177 167 156 170 139 232 182 141 108 112 124 117 122 130 95 38 5 97 130 142 109
225 220 219 228 234 218 214 208 205 211 212 215 216 211 207 163 163 167 191 171 165 166 172 161 165 167 158 197 219 188 210 134 25 151 172 170 96 89 57 42 60 109 139
303 253 235 264 244 238 218 214 210 209 220 213 216 208 205 179 175 182 205 176 170 163 182 175 171 140 166 196 263 287 11 119 133 229 116 96 57 64 51 50 42 65 89
314 241 158 85 305 219 216 212 220 221 215 210 217 207 192 175 161 190 199 221 159 164 180 186 157 154 165 182 228 114 155 243 186 123 107 79 74 75 70 72 70 70 67
3 87 102 92 72 11 297 209 220 218 250 217 208 186 193 189 160 171 165 144 153 164 178 174 140 156 148 173 196 172 208 229 190 100 88 83 80 103 109 92 94 90 79
282 115 47 80 112 120 64 28 6 359 320 258 226 197 204 195 169 166 170 152 162 163 127 136 154 169 188 166 151 199 241 207 312 94 104 110 121 116 107 98 97 99 90
301 270 245 205 221 175 135 95 45 13 132 307 307 206 211 201 195 164 168 173 173 173 155 142 171 180 187 181 189 191 189 178 184 139 138 128 120 135 114 104 101 95 97
322 359 30 231 290 36 52 156 143 163 354 13 298 279 207 225 146 153 168 146 152 142 160 162 184 191 190 182 183 178 186 199 170 162 144 144 135 131 126 114 107 105 104
3 354 317 340 70 105 17 316 327 116 87 44 349 335 18 114 124 125 108 110 145 155 171 173 194 190 191 185 181 182 174 186 168 169 153 145 157 123 164 132 129 126 121
21 71 334 332 334 16 335 321 331 136 86 344 40 335 114 111 105 104 112 116 161 194 185 178 206 212 186 185 186 177 169 159 194 173 164 156 156 173 154 150 148 138 135
358 18 5 21 13 323 305 317 336 114 115 105 53 290 19 53 146 149 170 177 173 189 172 177 180 230 197 182 183 177 166 176 182 181 168 168 164 181 168 169 137 112 144
355 23 20 22 19 20 15 2 33 61 65 106 162 187 121 96 83 118 172 235 207 212 188 175 179 189 233 183 180 174 175 168 174 193 173 171 176 179 180 166 156 160 180
353 20 10 47 42 38 24 14 47 55 83 102 122 182 205 91 165 187 209 226 209 202 181 171 156 194 212 198 186 180 178 175 182 191 178 180 174 177 182 179 166 180 165
18 26 37 48 51 52 46 39 32 46 49 61 48 355 343 248 257 216 241 245 207 165 155 143 147 184 207 210 187 190 188 182 180 187 187 181 182 166 179 183 182 180 160
23 37 45 42 49 51 59 41 36 42 31 33 32 18 15 16 7 13 93 152 177 150 147 137 134 119 285 254 194 209 198 191 180 182 185 191 184 179 171 180 188 189 177
25 26 45 51 49 53 60 56 45 49 42 33 27 22 15 19 18 25 25 27 47 50 80 126 148 140 106 315 252 197 214 215 187 184 187 193 190 178 181 176 183 187 187
38 32 31 40 46 49 58 65 63 63 60 47 35 27 27 33 29 31 37 40 44 44 44 30 35 97 96 82 40 17 351 319 329 344 191 199 202 182 197 189 181 183 192
52 49 36 35 39 44 41 43 49 50 56 53 41 35 36 40 40 37 37 47 48 50 48 37 39 46 57 51 17 10 325 338 324 345 332 237 204 197 198 201 186 196 189